Location: Three Oaks Observatory
(31.1535°N, 83.5955°W)
Time: 22:16:10
(UTC-04:00)

XW-2B - Visible Passes

Search period start: 21 March 2019 00:00
Search period end: 31 March 2019 00:00
Orbit: 508 x 529 km, 97.5° (Epoch: 21 March)

Date Brightness Start Highest point End Pass type
(mag) Time Alt. Az. Time Alt. Az. Time Alt. Az.
25 Mar ? 07:01:00 10° NE 07:04:20 31° E 07:07:39 10° SSE visible
26 Mar ? 06:47:38 10° NE 06:50:27 20° E 06:53:16 10° SE visible
27 Mar ? 06:34:42 10° ENE 06:36:33 13° E 06:38:23 10° SE visible
